{"data":{"norad_id":61864,"intl_designator":"2024-202V","name":"STARLINK-32318","alt_names":[],"object_type":"PAYLOAD","status":"ACTIVE","operator":null,"country":"US","launch_date":"2024-11-07","launch_site_code":"AFETR","launch_vehicle":null,"mission":null,"orbit_class":"UNKNOWN","rcs_meters":null,"size_class":null,"mass_kg":null,"dimensions":null,"purposes":["comms"],"wikipedia_slug":null,"has_3d_model":false,"image_url":null,"decayed_at":null,"tle_current":{"epoch":"2026-05-24T19:06:31.975488Z","epoch_age_seconds":92724,"freshness":"FRESH","line1":"1 61864U 24202V   26144.79620342  .00001240  00000+0  54584-4 0  9991","line2":"2 61864  43.0031 168.4824 0001736 273.5625  86.5028 15.27575799 86974","mean_motion":15.27575799,"eccentricity":0.0001736,"inclination_deg":43.0031,"raan_deg":168.4824,"arg_perigee_deg":273.5625,"mean_anomaly_deg":86.5028,"bstar":5.4584e-5,"rev_number":8697,"period_min":94.267007957489,"perigee_km":481.87057128374,"apogee_km":484.25277946383,"semimajor_km":6861.1986753738,"source":"CELESTRAK","updated_at":"2026-05-25T13:38:19.453653Z"}}}